Location: Pace/Milton
(30.6162°N, 87.1503°W)
Time: 07:07:56
(UTC-06:00)

Hubble Space Telescope - Pass Details

Date: 04 December 2021
Orbit: 535 x 538 km, 28.5° (Epoch: 23 January)

Event Time Altitude Azimuth Distance (km) Brightness Sun altitude
Exits shadow 03:53:54 16° 123° (ESE) 1,416 3.5 -33.0°
Drops below altitude 10° 03:54:52 10° 118° (ESE) 1,771 4.2 -32.8°
Sets 03:57:10 0° 112° (ESE) 2,661 5.4 -32.3°
